Global-17

operational
NORAD ID: 49949 Int'l Des: 2021-120 Owner: BSKG Country: US
LEOCIRCULAR

Global-17について

説明を読み込み中...

リアルタイム位置

3D地球を読み込み中...

次回通過

高度履歴

Altitude vs Time

uPlot chart will show altitude changes over time

軌道要素

1 49949U 21120A 26061.09179572 .00029980 00000-0 59149-3 0 9995
2 49949 41.9966 324.8048 0011497 227.4569 132.5303 15.46497933238289
Epoch: Mar 2, 2026 • Age: 33 hours

現在のステータス

高度 431.4 km
速度 7.65 km/s
衛星直下点 -19.59°S, 3.19°W
打ち上げ日 Dec 9, 2021
運用期間 4.2 years
タイプ earth observation

技術仕様

分類 Payload
質量 55.00 kg
乾燥質量 50.00 kg
総質量 55.00 kg
長さ 1.00 m
直径 0.50 m
スパン 1.00 m
形状 Box
製造者 LEOSTL
バスタイプ BSky
フェーズステータス In Orbit
所有者/国 BSKG/US

大規模コンステレーション

Loading constellations...